Time,TemperatureF,DewpointF,PressureIn,WindDirection,WindDirectionDegrees,WindSpeedMPH,WindSpeedGustMPH,Humidity,HourlyPrecipIn,Conditions,Clouds,dailyrainin,SoftwareType,DateUTC
2013-03-14 00:03:00,34.1,30.1,29.84,WNW,294,0.0,0.0,85,0.00,,,0.00,Wunderground v.1.15,2013-03-14 04:03:00,
2013-03-14 00:08:00,34.0,30.0,29.83,WNW,294,0.0,0.0,85,0.00,,,0.00,Wunderground v.1.15,2013-03-14 04:08:00,
2013-03-14 00:09:00,34.0,30.0,29.84,WNW,294,0.0,-999.0,85,-99.99,,,0.00,weatherlink.com 1.10,2013-03-14 04:09:00,
2013-03-14 00:18:00,33.8,29.8,29.83,NNE,26,0.0,0.0,85,0.00,,,0.00,Wunderground v.1.15,2013-03-14 04:18:00,
2013-03-14 00:23:00,33.7,29.4,29.84,NNW,340,1.0,1.0,84,0.00,,,0.00,Wunderground v.1.15,2013-03-14 04:23:00,
2013-03-14 00:28:00,33.7,29.1,29.83,NNW,340,1.0,1.0,83,0.00,,,0.00,Wunderground v.1.15,2013-03-14 04:28:00,
2013-03-14 00:38:00,33.7,29.1,29.83,NW,315,1.0,4.0,83,0.00,,,0.00,Wunderground v.1.15,2013-03-14 04:38:00,
2013-03-14 00:43:00,33.6,28.7,29.83,NW,315,0.0,0.0,82,0.00,,,0.00,Wunderground v.1.15,2013-03-14 04:43:00,
2013-03-14 00:48:00,33.5,28.9,29.83,NW,315,0.0,0.0,83,0.00,,,0.00,Wunderground v.1.15,2013-03-14 04:48:00,
2013-03-14 00:55:00,33.4,29.0,29.83,NW,304,0.0,-999.0,83,-99.99,,,0.00,weatherlink.com 1.10,2013-03-14 04:55:00,
2013-03-14 01:03:00,33.2,28.9,29.83,WNW,286,1.0,1.0,84,0.00,,,0.00,Wunderground v.1.15,2013-03-14 05:03:00,
2013-03-14 01:08:00,33.1,28.5,29.83,WNW,286,1.0,1.0,83,0.00,,,0.00,Wunderground v.1.15,2013-03-14 05:08:00,
2013-03-14 01:18:00,32.9,28.3,29.83,WNW,285,0.0,0.0,83,0.00,,,0.00,Wunderground v.1.15,2013-03-14 05:18:00,
2013-03-14 01:23:00,32.8,28.5,29.83,NW,314,1.0,2.0,84,0.00,,,0.00,Wunderground v.1.15,2013-03-14 05:23:00,
2013-03-14 01:28:00,32.7,28.4,29.83,North,351,1.0,3.0,84,0.00,,,0.00,Wunderground v.1.15,2013-03-14 05:28:00,
2013-03-14 01:38:00,32.6,28.9,29.83,NW,325,1.0,1.0,86,0.00,,,0.00,Wunderground v.1.15,2013-03-14 05:38:00,
2013-03-14 01:43:00,32.6,28.6,29.83,WNW,290,1.0,1.0,85,0.00,,,0.00,Wunderground v.1.15,2013-03-14 05:43:00,
2013-03-14 01:53:00,32.8,28.5,29.84,North,350,2.0,4.0,84,0.00,,,0.00,Wunderground v.1.15,2013-03-14 05:53:00,
2013-03-14 01:58:00,31.9,28.8,29.84,NW,325,4.0,5.0,88,0.00,,,0.00,Wunderground v.1.15,2013-03-14 05:58:00,
2013-03-14 02:03:00,30.7,28.4,29.85,NNW,333,5.0,5.0,91,0.00,,,0.00,Wunderground v.1.15,2013-03-14 06:03:00,
2013-03-14 02:10:00,29.7,28.0,29.85,WNW,290,1.0,-999.0,92,-99.99,,,0.00,weatherlink.com 1.10,2013-03-14 06:10:00,
2013-03-14 02:18:00,29.2,26.6,29.85,NNW,342,3.0,4.0,90,0.00,,,0.00,Wunderground v.1.15,2013-03-14 06:18:00,
2013-03-14 02:25:00,29.2,26.0,29.85,NNW,342,0.0,-999.0,88,-99.99,,,0.00,weatherlink.com 1.10,2013-03-14 06:25:00,
2013-03-14 02:33:00,29.3,25.4,29.85,NNW,340,2.0,2.0,85,0.00,,,0.00,Wunderground v.1.15,2013-03-14 06:33:00,
2013-03-14 02:40:00,29.4,26.0,29.85,WSW,237,2.0,-999.0,85,-99.99,,,0.00,weatherlink.com 1.10,2013-03-14 06:40:00,
2013-03-14 02:48:00,29.6,24.8,29.84,NNW,340,2.0,2.0,82,0.00,,,0.00,Wunderground v.1.15,2013-03-14 06:48:00,
2013-03-14 02:53:00,29.7,24.6,29.84,North,355,1.0,1.0,81,0.00,,,0.00,Wunderground v.1.15,2013-03-14 06:53:00,
2013-03-14 03:03:00,29.9,23.9,29.84,NNW,344,2.0,2.0,78,0.00,,,0.00,Wunderground v.1.15,2013-03-14 07:03:00,
2013-03-14 03:08:00,30.0,23.4,29.84,North,360,2.0,3.0,76,0.00,,,0.00,Wunderground v.1.15,2013-03-14 07:08:00,
2013-03-14 03:13:00,30.1,23.4,29.84,NNW,340,1.0,2.0,76,0.00,,,0.00,Wunderground v.1.15,2013-03-14 07:13:00,
2013-03-14 03:23:00,30.1,22.8,29.84,NNW,344,2.0,2.0,74,0.00,,,0.00,Wunderground v.1.15,2013-03-14 07:23:00,
2013-03-14 03:28:00,30.0,22.4,29.83,NW,322,3.0,3.0,73,0.00,,,0.00,Wunderground v.1.15,2013-03-14 07:28:00,
2013-03-14 03:38:00,30.1,22.8,29.83,WNW,283,1.0,2.0,74,0.00,,,0.00,Wunderground v.1.15,2013-03-14 07:38:00,
2013-03-14 03:43:00,30.1,23.1,29.83,North,11,1.0,2.0,75,0.00,,,0.00,Wunderground v.1.15,2013-03-14 07:43:00,
2013-03-14 03:48:00,30.0,22.7,29.83,NW,323,1.0,5.0,74,0.00,,,0.00,Wunderground v.1.15,2013-03-14 07:48:00,
2013-03-14 03:55:00,29.8,22.0,29.83,NNW,338,2.0,-999.0,74,-99.99,,,0.00,weatherlink.com 1.10,2013-03-14 07:55:00,
2013-03-14 04:10:00,29.7,21.0,29.83,WNW,296,8.0,-999.0,70,-99.99,,,0.00,weatherlink.com 1.10,2013-03-14 08:10:00,
2013-03-14 04:25:00,29.6,21.0,29.82,NNW,344,3.0,-999.0,71,-99.99,,,0.00,weatherlink.com 1.10,2013-03-14 08:25:00,
2013-03-14 04:40:00,29.2,20.0,29.82,WNW,292,2.0,-999.0,69,-99.99,,,0.00,weatherlink.com 1.10,2013-03-14 08:40:00,
2013-03-14 04:55:00,29.0,19.0,29.82,NW,308,2.0,-999.0,66,-99.99,,,0.00,weatherlink.com 1.10,2013-03-14 08:55:00,
2013-03-14 05:10:00,28.8,19.0,29.83,NNW,338,5.0,-999.0,67,-99.99,,,0.00,weatherlink.com 1.10,2013-03-14 09:10:00,
2013-03-14 05:25:00,28.1,18.0,29.83,NNW,327,4.0,-999.0,65,-99.99,,,0.00,weatherlink.com 1.10,2013-03-14 09:25:00,
2013-03-14 05:40:00,27.9,18.0,29.85,NNW,348,1.0,-999.0,66,-99.99,,,0.00,weatherlink.com 1.10,2013-03-14 09:40:00,
2013-03-14 05:55:00,27.7,18.0,29.85,NE,38,5.0,-999.0,67,-99.99,,,0.00,weatherlink.com 1.10,2013-03-14 09:55:00,
2013-03-14 06:10:00,27.3,17.0,29.85,NNW,332,0.0,-999.0,65,-99.99,,,0.00,weatherlink.com 1.10,2013-03-14 10:10:00,
2013-03-14 06:25:00,27.0,17.0,29.85,NNW,348,1.0,-999.0,65,-99.99,,,0.00,weatherlink.com 1.10,2013-03-14 10:25:00,
2013-03-14 06:40:00,26.8,18.0,29.85,WNW,294,5.0,-999.0,68,-99.99,,,0.00,weatherlink.com 1.10,2013-03-14 10:40:00,
2013-03-14 06:56:00,26.7,17.0,29.85,NW,317,3.0,-999.0,66,-99.99,,,0.00,weatherlink.com 1.10,2013-03-14 10:56:00,
2013-03-14 07:11:00,26.5,16.0,29.85,NW,313,1.0,-999.0,66,-99.99,,,0.00,weatherlink.com 1.10,2013-03-14 11:11:00,
2013-03-14 07:26:00,26.7,17.0,29.85,North,360,5.0,-999.0,66,-99.99,,,0.00,weatherlink.com 1.10,2013-03-14 11:26:00,
2013-03-14 07:41:00,27.0,18.0,29.85,NW,322,2.0,-999.0,68,-99.99,,,0.00,weatherlink.com 1.10,2013-03-14 11:41:00,
2013-03-14 07:56:00,27.0,17.0,29.86,West,275,4.0,-999.0,67,-99.99,,,0.00,weatherlink.com 1.10,2013-03-14 11:56:00,
2013-03-14 08:11:00,26.5,17.0,29.86,North,360,6.0,-999.0,67,-99.99,,,0.00,weatherlink.com 1.10,2013-03-14 12:11:00,
2013-03-14 08:56:00,24.8,13.0,29.89,WNW,293,5.0,-999.0,62,-99.99,,,0.00,weatherlink.com 1.10,2013-03-14 12:56:00,
2013-03-14 09:26:00,24.8,12.0,29.89,NNW,348,5.0,-999.0,58,-99.99,,,0.00,weatherlink.com 1.10,2013-03-14 13:26:00,
2013-03-14 09:41:00,25.2,13.0,29.89,WNW,301,5.0,-999.0,59,-99.99,,,0.00,weatherlink.com 1.10,2013-03-14 13:41:00,
2013-03-14 09:56:00,25.3,13.0,29.89,NNW,331,2.0,-999.0,60,-99.99,,,0.00,weatherlink.com 1.10,2013-03-14 13:56:00,
2013-03-14 10:11:00,25.9,13.0,29.89,NW,317,4.0,-999.0,58,-99.99,,,0.00,weatherlink.com 1.10,2013-03-14 14:11:00,
2013-03-14 10:26:00,26.3,12.0,29.89,NW,304,3.0,-999.0,56,-99.99,,,0.00,weatherlink.com 1.10,2013-03-14 14:26:00,
2013-03-14 10:41:00,26.9,13.0,29.89,NNW,347,4.0,-999.0,57,-99.99,,,0.00,weatherlink.com 1.10,2013-03-14 14:41:00,
2013-03-14 10:56:00,26.5,14.0,29.89,WNW,288,6.0,-999.0,60,-99.99,,,0.00,weatherlink.com 1.10,2013-03-14 14:56:00,
2013-03-14 11:11:00,27.2,15.0,29.89,North,360,10.0,-999.0,60,-99.99,,,0.00,weatherlink.com 1.10,2013-03-14 15:11:00,
2013-03-14 11:26:00,27.4,14.0,29.88,NNW,348,9.0,-999.0,58,-99.99,,,0.00,weatherlink.com 1.10,2013-03-14 15:26:00,
2013-03-14 11:41:00,27.1,14.0,29.88,WNW,298,4.0,-999.0,59,-99.99,,,0.00,weatherlink.com 1.10,2013-03-14 15:41:00,
2013-03-14 11:56:00,28.1,15.0,29.88,NW,313,11.0,-999.0,58,-99.99,,,0.00,weatherlink.com 1.10,2013-03-14 15:56:00,
2013-03-14 12:11:00,28.3,15.0,29.88,WNW,290,5.0,-999.0,58,-99.99,,,0.00,weatherlink.com 1.10,2013-03-14 16:11:00,
2013-03-14 12:26:00,27.3,14.0,29.87,NNW,342,4.0,-999.0,58,-99.99,,,0.00,weatherlink.com 1.10,2013-03-14 16:26:00,
2013-03-14 12:41:00,28.0,15.0,29.87,NNW,333,6.0,-999.0,58,-99.99,,,0.00,weatherlink.com 1.10,2013-03-14 16:41:00,
2013-03-14 12:56:00,28.9,16.0,29.87,WNW,298,10.0,-999.0,58,-99.99,,,0.00,weatherlink.com 1.10,2013-03-14 16:56:00,
2013-03-14 13:11:00,29.6,16.0,29.85,NNW,348,7.0,-999.0,58,-99.99,,,0.00,weatherlink.com 1.10,2013-03-14 17:11:00,
2013-03-14 13:26:00,28.9,15.0,29.85,NE,51,7.0,-999.0,57,-99.99,,,0.00,weatherlink.com 1.10,2013-03-14 17:26:00,
2013-03-14 13:41:00,29.4,15.0,29.85,NW,323,5.0,-999.0,56,-99.99,,,0.00,weatherlink.com 1.10,2013-03-14 17:41:00,
2013-03-14 13:56:00,29.8,16.0,29.84,West,277,6.0,-999.0,56,-99.99,,,0.00,weatherlink.com 1.10,2013-03-14 17:56:00,
2013-03-14 14:26:00,30.9,17.0,29.83,North,360,2.0,-999.0,56,-99.99,,,0.00,weatherlink.com 1.10,2013-03-14 18:26:00,
2013-03-14 14:41:00,31.6,17.0,29.83,North,350,6.0,-999.0,54,-99.99,,,0.00,weatherlink.com 1.10,2013-03-14 18:41:00,
2013-03-14 14:56:00,32.1,17.0,29.83,WNW,294,3.0,-999.0,54,-99.99,,,0.00,weatherlink.com 1.10,2013-03-14 18:56:00,
2013-03-14 15:11:00,31.2,16.0,29.83,NW,325,2.0,-999.0,54,-99.99,,,0.00,weatherlink.com 1.10,2013-03-14 19:11:00,
2013-03-14 15:41:00,31.9,16.0,29.82,NW,309,7.0,-999.0,52,-99.99,,,0.00,weatherlink.com 1.10,2013-03-14 19:41:00,
2013-03-14 15:56:00,32.0,16.0,29.83,NNW,332,16.0,-999.0,51,-99.99,,,0.00,weatherlink.com 1.10,2013-03-14 19:56:00,
2013-03-14 16:11:00,31.2,16.0,29.82,NNE,32,6.0,-999.0,53,-99.99,,,0.00,weatherlink.com 1.10,2013-03-14 20:11:00,
2013-03-14 16:26:00,31.5,16.0,29.83,North,360,15.0,-999.0,54,-99.99,,,0.00,weatherlink.com 1.10,2013-03-14 20:26:00,
2013-03-14 16:41:00,32.3,17.0,29.82,WNW,296,4.0,-999.0,53,-99.99,,,0.00,weatherlink.com 1.10,2013-03-14 20:41:00,
2013-03-14 16:56:00,32.6,17.0,29.83,North,5,4.0,-999.0,53,-99.99,,,0.00,weatherlink.com 1.10,2013-03-14 20:56:00,
2013-03-14 17:26:00,32.6,16.0,29.82,ENE,69,0.0,-999.0,50,-99.99,,,0.00,weatherlink.com 1.10,2013-03-14 21:26:00,
2013-03-14 17:41:00,32.8,17.0,29.83,NNW,337,0.0,-999.0,52,-99.99,,,0.00,weatherlink.com 1.10,2013-03-14 21:41:00,
2013-03-14 17:56:00,32.5,16.0,29.83,NNW,342,3.0,-999.0,51,-99.99,,,0.00,weatherlink.com 1.10,2013-03-14 21:56:00,
2013-03-14 18:11:00,32.3,16.0,29.83,NNW,342,3.0,-999.0,51,-99.99,,,0.00,weatherlink.com 1.10,2013-03-14 22:11:00,
2013-03-14 18:26:00,32.1,15.0,29.84,NNE,21,1.0,-999.0,50,-99.99,,,0.00,weatherlink.com 1.10,2013-03-14 22:26:00,
2013-03-14 18:41:00,32.0,15.0,29.84,NE,44,4.0,-999.0,49,-99.99,,,0.00,weatherlink.com 1.10,2013-03-14 22:41:00,
2013-03-14 19:11:00,31.9,12.0,29.84,NNW,341,2.0,-999.0,43,-99.99,,,0.00,weatherlink.com 1.10,2013-03-14 23:11:00,
2013-03-14 19:41:00,31.4,12.0,29.85,NNW,338,3.0,-999.0,45,-99.99,,,0.00,weatherlink.com 1.10,2013-03-14 23:41:00,
2013-03-14 19:56:00,31.2,11.0,29.86,WNW,302,2.0,-999.0,44,-99.99,,,0.00,weatherlink.com 1.10,2013-03-14 23:56:00,
2013-03-14 20:11:00,31.0,12.0,29.87,North,360,2.0,-999.0,45,-99.99,,,0.00,weatherlink.com 1.10,2013-03-15 00:11:00,
2013-03-14 20:23:00,30.8,11.9,29.87,NNW,348,3.0,7.0,45,0.00,,,0.00,Wunderground v.1.15,2013-03-15 00:23:00,
2013-03-14 20:33:00,30.7,12.3,29.88,NNW,341,3.0,9.0,46,0.00,,,0.00,Wunderground v.1.15,2013-03-15 00:33:00,
2013-03-14 20:39:00,30.8,11.9,29.87,NW,312,4.0,9.0,45,0.00,,,0.00,Wunderground v.1.15,2013-03-15 00:39:00,
2013-03-14 20:48:00,30.7,12.3,29.88,NNW,338,3.0,3.0,46,0.00,,,0.00,Wunderground v.1.15,2013-03-15 00:48:00,
2013-03-14 20:53:00,30.6,12.7,29.88,WNW,293,3.0,4.0,47,0.00,,,0.00,Wunderground v.1.15,2013-03-15 00:53:00,
2013-03-14 20:58:00,30.6,12.7,29.88,NW,314,2.0,4.0,47,0.00,,,0.00,Wunderground v.1.15,2013-03-15 00:58:00,
2013-03-14 21:08:00,30.6,13.2,29.88,North,355,3.0,3.0,48,0.00,,,0.00,Wunderground v.1.15,2013-03-15 01:08:00,
2013-03-14 21:13:00,30.5,12.6,29.89,NNE,24,2.0,2.0,47,0.00,,,0.00,Wunderground v.1.15,2013-03-15 01:13:00,
2013-03-14 21:18:00,30.3,12.5,29.89,NNW,346,3.0,3.0,47,0.00,,,0.00,Wunderground v.1.15,2013-03-15 01:18:00,
2013-03-14 21:27:00,30.4,13.0,29.89,NE,41,4.0,-999.0,48,-99.99,,,0.00,weatherlink.com 1.10,2013-03-15 01:27:00,
2013-03-14 21:33:00,30.3,12.9,29.89,NNW,348,3.0,9.0,48,0.00,,,0.00,Wunderground v.1.15,2013-03-15 01:33:00,
2013-03-14 21:42:00,30.1,12.0,29.89,WSW,240,2.0,-999.0,48,-99.99,,,0.00,weatherlink.com 1.10,2013-03-15 01:42:00,
2013-03-14 21:48:00,30.0,13.6,29.89,NNW,341,2.0,4.0,50,0.00,,,0.00,Wunderground v.1.15,2013-03-15 01:48:00,
2013-03-14 21:53:00,29.8,12.9,29.89,NNW,341,2.0,2.0,49,0.00,,,0.00,Wunderground v.1.15,2013-03-15 01:53:00,
2013-03-14 22:03:00,29.7,12.8,29.89,NW,315,4.0,4.0,49,0.00,,,0.00,Wunderground v.1.15,2013-03-15 02:03:00,
2013-03-14 22:08:00,29.6,12.3,29.90,NW,326,3.0,4.0,48,0.00,,,0.00,Wunderground v.1.15,2013-03-15 02:08:00,
2013-03-14 22:13:00,29.6,12.3,29.90,North,11,2.0,2.0,48,0.00,,,0.00,Wunderground v.1.15,2013-03-15 02:13:00,
2013-03-14 22:23:00,29.6,13.2,29.90,WNW,297,3.0,4.0,50,0.00,,,0.00,Wunderground v.1.15,2013-03-15 02:23:00,
2013-03-14 22:28:00,29.5,12.2,29.90,NNW,344,3.0,6.0,48,0.00,,,0.00,Wunderground v.1.15,2013-03-15 02:28:00,
2013-03-14 22:38:00,29.3,12.5,29.91,NW,323,3.0,4.0,49,0.00,,,0.00,Wunderground v.1.15,2013-03-15 02:38:00,
2013-03-14 22:43:00,29.2,12.4,29.91,NW,314,2.0,2.0,49,0.00,,,0.00,Wunderground v.1.15,2013-03-15 02:43:00,
2013-03-14 22:48:00,29.2,12.8,29.91,WNW,296,3.0,5.0,50,0.00,,,0.00,Wunderground v.1.15,2013-03-15 02:48:00,
2013-03-14 22:57:00,29.1,12.0,29.91,NNW,344,2.0,-999.0,49,-99.99,,,0.00,weatherlink.com 1.10,2013-03-15 02:57:00,
2013-03-14 23:03:00,29.0,13.6,29.91,NNW,345,2.0,2.0,52,0.00,,,0.00,Wunderground v.1.15,2013-03-15 03:03:00,
2013-03-14 23:08:00,29.0,12.2,29.91,NNW,330,2.0,5.0,49,0.00,,,0.00,Wunderground v.1.15,2013-03-15 03:08:00,
2013-03-14 23:13:00,28.9,12.0,29.91,NNE,19,1.0,-999.0,50,-99.99,,,0.00,weatherlink.com 1.10,2013-03-15 03:13:00,
2013-03-14 23:18:00,28.8,12.5,29.91,NNW,338,2.0,4.0,50,0.00,,,0.00,Wunderground v.1.15,2013-03-15 03:18:00,
2013-03-14 23:23:00,28.8,12.5,29.91,NW,326,1.0,2.0,50,0.00,,,0.00,Wunderground v.1.15,2013-03-15 03:23:00,
2013-03-14 23:33:00,28.8,12.5,29.91,NNW,348,2.0,4.0,50,0.00,,,0.00,Wunderground v.1.15,2013-03-15 03:33:00,
2013-03-14 23:38:00,28.8,12.5,29.91,NNW,340,3.0,4.0,50,0.00,,,0.00,Wunderground v.1.15,2013-03-15 03:38:00,
2013-03-14 23:48:00,28.9,12.6,29.91,North,10,3.0,3.0,50,0.00,,,0.00,Wunderground v.1.15,2013-03-15 03:48:00,
2013-03-14 23:53:00,28.8,12.0,29.91,West,276,3.0,3.0,49,0.00,,,0.00,Wunderground v.1.15,2013-03-15 03:53:00,